• In Russia
  • List of Countries
  • For 7 days
  • Water Temperature
  • Satellite Maps
  • Weather Map
  • Weather Widgets
  • user-avatar
    Login

    Hourly Weather Malanville

    Today, 20 July, Friday

    Time Temperature Precipitation Wind Pressure Humidity
    00:00 +31°C° 0 mm 3 mps 744 mmHg 63%
    01:00 +30°C° 0.3 mm 3 mps 744 mmHg 66%
    02:00 +30°C° 0.3 mm 3 mps 743 mmHg 70%
    03:00 +29°C° 0.3 mm 2 mps 743 mmHg 73%
    04:00 +29°C° 0 mm 3 mps 743 mmHg 74%
    05:00 +28°C° 0 mm 3 mps 743 mmHg 76%
    06:00 +28°C° 0 mm 2 mps 744 mmHg 78%
    07:00 +29°C° 0.1 mm 3 mps 744 mmHg 71%
    08:00 +31°C° 0.1 mm 3 mps 744 mmHg 64%
    09:00 +34°C° 0.1 mm 4 mps 744 mmHg 58%
    10:00 +35°C° 0 mm 3 mps 744 mmHg 51%
    11:00 +37°C° 0 mm 2 mps 743 mmHg 45%
    12:00 +37°C° 0 mm 1 mps 743 mmHg 40%
    13:00 +37°C° 0 mm 1 mps 743 mmHg 40%
    14:00 +37°C° 0 mm 1 mps 742 mmHg 39%
    15:00 +35°C° 0 mm 0 mps 742 mmHg 39%
    16:00 +37°C° 0 mm 1 mps 742 mmHg 41%
    17:00 +36°C° 0 mm 1 mps 742 mmHg 42%
    18:00 +35°C° 0 mm 1 mps 741 mmHg 44%
    19:00 +35°C° 0 mm 2 mps 742 mmHg 47%
    20:00 +35°C° 0 mm 2 mps 742 mmHg 50%
    21:00 +34°C° 0 mm 2 mps 742 mmHg 53%
    22:00 +33°C° 0.3 mm 3 mps 743 mmHg 58%
    23:00 +31°C° 0.3 mm 3 mps 743 mmHg 63%

    Tomorrow, 21 July, Saturday

    Time Temperature Precipitation Wind Pressure Humidity
    00:00 +30°C° 0.3 mm 3 mps 743 mmHg 68%
    01:00 +29°C° 0.4 mm 3 mps 743 mmHg 71%
    02:00 +29°C° 0.4 mm 3 mps 743 mmHg 74%
    03:00 +28°C° 0.4 mm 2 mps 743 mmHg 78%
    04:00 +28°C° 0 mm 3 mps 743 mmHg 79%
    05:00 +28°C° 0 mm 3 mps 743 mmHg 80%
    06:00 +27°C° 0 mm 4 mps 743 mmHg 81%
    07:00 +29°C° 0 mm 4 mps 744 mmHg 74%
    08:00 +30°C° 0 mm 5 mps 744 mmHg 68%
    09:00 +33°C° 0 mm 5 mps 744 mmHg 61%
    10:00 +34°C° 0 mm 5 mps 744 mmHg 55%
    11:00 +36°C° 0 mm 4 mps 744 mmHg 48%
    12:00 +38°C° 0 mm 3 mps 744 mmHg 41%
    13:00 +38°C° 0 mm 3 mps 743 mmHg 41%
    14:00 +38°C° 0 mm 3 mps 743 mmHg 40%
    15:00 +38°C° 0 mm 2 mps 742 mmHg 39%
    16:00 +37°C° 0.1 mm 3 mps 742 mmHg 43%
    17:00 +36°C° 0.1 mm 3 mps 743 mmHg 48%
    18:00 +35°C° 0.1 mm 4 mps 743 mmHg 52%
    19:00 +33°C° 0.5 mm 4 mps 743 mmHg 59%
    20:00 +32°C° 0.5 mm 4 mps 744 mmHg 65%
    21:00 +30°C° 0.5 mm 4 mps 745 mmHg 71%
    22:00 +29°C° 0 mm 3 mps 745 mmHg 73%
    23:00 +29°C° 0 mm 3 mps 745 mmHg 74%

    Day after tomorrow, 22 July, Sunday

    Time Temperature Precipitation Wind Pressure Humidity
    00:00 +29°C° 0 mm 3 mps 745 mmHg 75%
    01:00 +28°C° 0 mm 3 mps 744 mmHg 77%
    02:00 +28°C° 0 mm 3 mps 744 mmHg 78%
    03:00 +28°C° 0 mm 3 mps 744 mmHg 80%
    04:00 +28°C° 0 mm 3 mps 744 mmHg 81%
    05:00 +27°C° 0 mm 3 mps 744 mmHg 82%
    06:00 +27°C° 0 mm 3 mps 744 mmHg 83%
    07:00 +28°C° 0 mm 3 mps 745 mmHg 76%
    08:00 +29°C° 0 mm 3 mps 745 mmHg 70%
    09:00 +31°C° 0 mm 3 mps 746 mmHg 63%
    10:00 +33°C° 0 mm 3 mps 746 mmHg 57%
    11:00 +35°C° 0 mm 3 mps 745 mmHg 51%
    12:00 +36°C° 0 mm 3 mps 745 mmHg 45%
    13:00 +37°C° 0 mm 3 mps 744 mmHg 43%
    14:00 +37°C° 0 mm 3 mps 743 mmHg 41%
    15:00 +38°C° 0 mm 3 mps 742 mmHg 39%
    16:00 +37°C° 0 mm 3 mps 742 mmHg 42%
    17:00 +36°C° 0 mm 2 mps 742 mmHg 45%
    18:00 +35°C° 0 mm 2 mps 742 mmHg 48%
    19:00 +35°C° 0 mm 2 mps 743 mmHg 52%
    20:00 +34°C° 0 mm 3 mps 744 mmHg 55%
    21:00 +33°C° 0 mm 3 mps 745 mmHg 58%
    22:00 +31°C° 0.6 mm 3 mps 745 mmHg 63%
    23:00 +30°C° 0.6 mm 3 mps 745 mmHg 68%

    23 July, Monday

    Time Temperature Precipitation Wind Pressure Humidity
    00:00 +29°C° 0.6 mm 3 mps 745 mmHg 73%
    01:00 +29°C° 0 mm 3 mps 744 mmHg 74%
    02:00 +29°C° 0 mm 3 mps 744 mmHg 75%
    03:00 +28°C° 0 mm 3 mps 744 mmHg 77%
    04:00 +28°C° 0 mm 3 mps 744 mmHg 78%
    05:00 +28°C° 0 mm 3 mps 744 mmHg 79%
    06:00 +28°C° 0 mm 3 mps 745 mmHg 80%
    07:00 +29°C° 0 mm 4 mps 745 mmHg 73%
    08:00 +32°C° 0 mm 4 mps 746 mmHg 66%
    09:00 +34°C° 0 mm 5 mps 746 mmHg 58%
    10:00 +35°C° 0 mm 4 mps 746 mmHg 53%
    11:00 +37°C° 0 mm 4 mps 745 mmHg 47%
    12:00 +38°C° 0 mm 3 mps 745 mmHg 42%
    13:00 +38°C° 0 mm 3 mps 744 mmHg 42%
    14:00 +38°C° 0 mm 3 mps 743 mmHg 41%
    15:00 +38°C° 0 mm 3 mps 742 mmHg 41%
    16:00 +37°C° 0 mm 3 mps 743 mmHg 44%
    17:00 +37°C° 0 mm 3 mps 743 mmHg 46%
    18:00 +36°C° 0 mm 3 mps 743 mmHg 48%
    19:00 +35°C° 0 mm 3 mps 743 mmHg 51%
    20:00 +35°C° 0 mm 3 mps 744 mmHg 53%
    21:00 +34°C° 0 mm 3 mps 744 mmHg 55%
    22:00 +33°C° 0.4 mm 4 mps 744 mmHg 59%
    23:00 +32°C° 0.4 mm 4 mps 744 mmHg 63%

    24 July, Tuesday

    Time Temperature Precipitation Wind Pressure Humidity
    00:00 +32°C° 0.4 mm 4 mps 744 mmHg 66%
    01:00 +30°C° 0 mm 4 mps 743 mmHg 68%
    02:00 +30°C° 0 mm 4 mps 743 mmHg 69%
    03:00 +30°C° 0 mm 4 mps 743 mmHg 70%
    04:00 +29°C° 0.1 mm 4 mps 743 mmHg 72%
    05:00 +29°C° 0.1 mm 4 mps 743 mmHg 73%
    06:00 +29°C° 0.1 mm 3 mps 744 mmHg 75%
    07:00 +30°C° 0 mm 4 mps 744 mmHg 72%
    08:00 +30°C° 0 mm 5 mps 745 mmHg 70%
    09:00 +32°C° 0 mm 5 mps 746 mmHg 67%
    10:00 +33°C° 0 mm 5 mps 745 mmHg 62%
    11:00 +35°C° 0 mm 4 mps 745 mmHg 56%
    12:00 +36°C° 0 mm 3 mps 745 mmHg 51%
    13:00 +37°C° 0 mm 3 mps 744 mmHg 49%
    14:00 +37°C° 0 mm 4 mps 743 mmHg 46%
    15:00 +38°C° 0 mm 4 mps 742 mmHg 44%
    16:00 +37°C° 0.1 mm 3 mps 743 mmHg 48%
    17:00 +36°C° 0.1 mm 3 mps 743 mmHg 51%
    18:00 +35°C° 0.1 mm 3 mps 743 mmHg 54%
    19:00 +34°C° 0.6 mm 3 mps 743 mmHg 59%
    20:00 +33°C° 0.6 mm 4 mps 744 mmHg 64%
    21:00 +32°C° 0.6 mm 4 mps 744 mmHg 70%
    22:00 +30°C° 0.2 mm 4 mps 744 mmHg 72%
    23:00 +30°C° 0.2 mm 4 mps 744 mmHg 74%

    25 July, Wednesday

    Time Temperature Precipitation Wind Pressure Humidity
    00:00 +29°C° 0.2 mm 5 mps 744 mmHg 77%
    01:00 +29°C° 0 mm 4 mps 743 mmHg 78%
    02:00 +29°C° 0 mm 4 mps 743 mmHg 80%
    03:00 +28°C° 0 mm 4 mps 743 mmHg 81%
    04:00 +28°C° 0 mm 4 mps 744 mmHg 81%
    05:00 +28°C° 0 mm 5 mps 744 mmHg 80%
    06:00 +28°C° 0 mm 5 mps 745 mmHg 80%
    07:00 +29°C° 0 mm 5 mps 745 mmHg 74%
    08:00 +30°C° 0 mm 5 mps 746 mmHg 68%
    09:00 +33°C° 0 mm 5 mps 746 mmHg 62%
    10:00 +34°C° 0 mm 5 mps 746 mmHg 57%
    11:00 +36°C° 0 mm 5 mps 745 mmHg 51%
    12:00 +37°C° 0 mm 5 mps 745 mmHg 46%
    13:00 +37°C° 0.2 mm 5 mps 744 mmHg 45%
    14:00 +37°C° 0.2 mm 5 mps 744 mmHg 44%
    15:00 +38°C° 0.2 mm 4 mps 743 mmHg 43%
    16:00 +37°C° 0 mm 4 mps 743 mmHg 46%
    17:00 +36°C° 0 mm 4 mps 743 mmHg 49%
    18:00 +35°C° 0 mm 3 mps 744 mmHg 52%
    19:00 +34°C° 0.6 mm 3 mps 744 mmHg 57%
    20:00 +33°C° 0.6 mm 3 mps 745 mmHg 63%
    21:00 +30°C° 0.6 mm 3 mps 745 mmHg 68%
    22:00 +30°C° 0.6 mm 3 mps 745 mmHg 71%
    23:00 +29°C° 0.6 mm 3 mps 745 mmHg 75%
    Show more